Location: Kergrach
(48.3833°N, 4.5167°W)
Time: 09:02:06
(UTC+00:00)

FENGYUN 3A - Pass Details

Date: 18 February 2020
Orbit: 824 x 836 km, 98.4° (Epoch: 27 March)

Event Time Altitude Azimuth Distance (km) Brightness Sun altitude
Rises 06:11:59 0° 10° (N) 3,396 6.9 -12.1°
Reaches altitude 10° 06:14:24 10° 6° (N) 2,459 6.1 -11.7°
Maximum altitude 06:19:41 54° 291° (WNW) 1,010 3.8 -10.8°
Drops below altitude 10° 06:24:57 10° 215° (SW) 2,444 5.8 -10.0°
Sets 06:27:21 0° 211° (SSW) 3,373 6.6 -9.6°
